This is the latest recevied weather packets stored in our database for station/object W8KHW. If no packets are shown the sender has not sent any weather packets the latest 10 day(s).
| Time | Temp. | Humidity | Pressure | Rain* | Wind** | Luminosity | Snow |
|---|---|---|---|---|---|---|---|
| 1777782909 | 2.22° C | 88% | 1018.3 hPa | 0 mm | - | - | - |
| 1777782408 | 2.22° C | 88% | 1018.4 hPa | 0 mm | - | - | - |
| 1777781908 | 2.22° C | 87% | 1018.3 hPa | 0 mm | - | - | - |
| 1777781408 | 2.78° C | 86% | 1018.3 hPa | 0 mm | - | - | - |
| 1777780908 | 2.78° C | 85% | 1018.3 hPa | 0 mm | - | - | - |
| 1777780408 | 2.78° C | 84% | 1018.7 hPa | 0 mm | - | - | - |
| 1777779907 | 2.78° C | 84% | 1018.4 hPa | 0 mm | - | - | - |
| 1777779407 | 2.78° C | 84% | 1018.6 hPa | 0 mm | - | - | - |
| 1777778907 | 3.33° C | 84% | 1018.4 hPa | 0 mm | - | - | - |
| 1777778407 | 2.78° C | 84% | 1018.4 hPa | 0 mm | - | - | - |
| 1777777907 | 2.78° C | 83% | 1018.4 hPa | 0 mm | - | - | - |
| 1777777406 | 2.78° C | 82% | 1018.5 hPa | 0 mm | - | - | - |
| 1777776906 | 3.33° C | 82% | 1018.7 hPa | 0 mm | - | - | - |
| 1777776406 | 2.78° C | 80% | 1018.6 hPa | 0 mm | - | - | - |
| 1777775906 | 3.33° C | 79% | 1018.7 hPa | 0 mm | - | - | - |
| 1777775405 | 3.33° C | 77% | 1018.5 hPa | 0 mm | - | - | - |
| 1777774905 | 3.89° C | 74% | 1018.6 hPa | 0 mm | - | - | - |
| 1777774405 | 4.44° C | 73% | 1018.4 hPa | 0 mm | - | - | - |
| 1777773905 | 4.44° C | 71% | 1018.5 hPa | 0 mm | - | - | - |
| 1777773404 | 5° C | 68% | 1018.4 hPa | 0 mm | - | - | - |
| 1777772904 | 5.56° C | 67% | 1018.5 hPa | 0 mm | - | - | - |
| 1777772404 | 5.56° C | 62% | 1018.3 hPa | 0 mm | - | - | - |
| 1777771904 | 6.11° C | 62% | 1018.4 hPa | 0 mm | - | - | - |
| 1777771404 | 6.11° C | 64% | 1018.5 hPa | 0 mm | - | - | - |
| 1777770903 | 6.11° C | 62% | 1018.3 hPa | 0 mm | - | - | - |
* Rain latest hour (hover to see other rain measurements)
** Current wind speed in m/s (hover to see current wind gust speed)